Regional Weather Roundup
Issued by NWS Midland/Odessa, TX

Skip options and go directly to product.
Home | Oldest Version | Next Version | Current Version | All | Text Only | Save Text | Print | Product List | Glossary On

Skip product version selection by date and time.   
200
ASUS44 KMAF 270501
RWRMAF
MIDLAND AREA WEATHER ROUNDUP
NATIONAL WEATHER SERVICE MIDLAND TX
1200 AM CDT THU AUG 27 2015

...IN SOUTHWEST TEXAS AND SOUTHEAST NEW MEXICO...

CITY           SKY/WX    TMP DP  RH WIND       PRES   REMARKS
ALPINE         CLEAR     76  54  46 SE10      30.32R
ANDREWS        FAIR      74  60  63 SE6       30.20S
ARTESIA        CLEAR     79  55  44 SE7       30.20S
BIG SPRING     CLEAR     75  58  55 E7        30.19S
CARLSBAD       CLEAR     80  54  40 SE7       30.17R
DRYDEN           N/A     83  63  50 NW3       30.12R
FORT STOCKTON  PTCLDY    78  60  53 SE9       30.17S
GUAD PASS      PTCLDY    74  52  46 E22       30.34S
HOBBS          PTCLDY    72  55  56 E7        30.23F
MARFA          CLEAR     68  54  60 N5        30.30R
MIDLAND AIRPK  CLEAR     81  61  50 S6        30.19S
MIDLAND INTL   CLEAR     78  62  57 SE7       30.17S
ODESSA         CLEAR     79  59  50 SE7       30.18F
PECOS          PTCLDY    79  58  47 SE5       30.13S
PRESIDIO       NOT AVBL
SEMINOLE       CLEAR     73  60  63 E5        30.22S
SNYDER         CLEAR     78  61  55 SE7       30.18R
WINK           CLEAR     80  59  48 E6        30.15R
$$
...OTHER STATIONS IN TEXAS...

CITY           SKY/WX    TMP DP  RH WIND       PRES   REMARKS
ABILENE        MOCLDY    79  67  66 SE8       30.14R
AMARILLO       MOCLDY    76  57  51 S13       30.21S
AUSTIN         PTCLDY    77  68  73 CALM      30.07S
BROWNSVILLE    CLEAR     77  74  90 NE3       30.04S
CORPUS CHRISTI PTCLDY    82  74  76 SE10      30.05S
DALLAS FTW     MOCLDY    80  54  40 S5        30.08S
DEL RIO        CLEAR     87  63  44 E12       30.05R
EL PASO        PTCLDY    82  55  39 SE5       30.17R
HOUSTON INT    CLEAR     72  66  81 CALM      30.06S
LUBBOCK        MOCLDY    76  58  53 SE9       30.20F
SAN ANGELO     PTCLDY    80  66  62 CALM      30.13S
SAN ANTONIO    PTCLDY    84  68  58 SE10      30.09R
WACO           PTCLDY    76  60  57 CALM      30.09R
WICHITA FALLS  NOT AVBL
$$
...OTHER LOCATIONS IN NEW MEXICO...

CITY           SKY/WX    TMP DP  RH WIND       PRES   REMARKS
ALAMAGORDO     MOCLDY    82  48  30 N5        30.22S
ALBUQUERQUE    CLOUDY    69  59  70 N9        30.34S
CANNON AFB     CLOUDY    73  56  55 S8        30.26F
CLOVIS         MOCLDY    73  54  49 S9        30.27F
HOLLOMAN AFB   CLOUDY    79  55  43 N9        30.21R
ROSWELL        MOCLDY    78  54  43 S6        30.20R
RUIDOSO        MOCLDY    63  54  72 MISG      30.46S
SANTA FE       CLOUDY    63  59  87 CALM      30.42S
TRUTH OR CONSE CLOUDY    73  58  59 N7        30.29R
TUCUMCARI      CLOUDY    78  52  40 SW9       30.23S
$$

USA.gov is the U.S. government's official web portal to all federal, state and local government web resources and services.